GFSSGP_250_rhum_162.txt.gz
RH
48 49 49 49 65 60 58 44 67 66 99 52 31 24 22 61 41 34 33 44 37 22 17 20 24 23 21 20 23 42 64 80 92 79 71 49 45 64 52 38 26 19 18 27 24 30 38 50 54
62 63 56 56 63 61 68 70 89 85 45 35 30 27 22 38 45 43 34 63 68 37 16 17 25 32 32 29 26 57 98 97 87 60 56 49 56 62 59 46 35 24 23 29 30 28 34 53 59
74 59 60 81 72 78 91 99 76 42 47 36 30 25 23 25 25 37 40 77 85 43 24 18 22 32 29 25 28 26 51 84 78 66 45 52 68 67 56 49 37 29 21 24 35 36 32 27 33
32 28 64 82 88 96 95 72 58 50 42 36 30 26 26 20 19 32 47 81 87 58 36 20 16 26 26 25 24 27 29 75 71 51 54 77 75 64 57 47 38 32 25 26 36 40 38 31 29
42 67 98 100 100 91 54 48 62 64 30 45 41 25 29 18 22 33 58 88 80 63 49 25 18 20 20 21 30 36 44 64 57 65 88 93 80 66 55 45 35 32 28 27 30 34 39 44 42
100 100 100 64 32 36 30 23 86 44 28 49 54 46 22 17 21 27 46 91 87 74 70 36 19 17 19 20 36 62 74 77 81 91 100 98 68 60 48 39 35 37 37 40 36 31 28 28 29
83 91 64 39 32 40 47 33 95 74 85 68 69 31 19 15 16 22 43 74 94 96 75 37 24 20 18 21 43 89 91 99 100 100 98 73 65 56 49 52 45 41 42 40 36 32 28 22 23
96 82 75 64 57 56 72 72 100 100 100 78 40 29 22 18 15 27 38 59 69 97 64 52 30 27 22 20 40 100 100 97 53 57 64 60 59 67 60 58 58 62 64 54 40 35 34 31 30
39 33 31 35 60 58 70 99 98 96 97 66 42 28 23 17 14 24 31 52 64 72 61 58 37 30 25 24 36 56 61 54 53 73 79 91 100 100 100 100 99 80 68 54 44 44 40 36 35
34 34 40 37 26 22 22 19 34 54 68 49 34 28 23 18 13 19 34 52 65 72 93 74 34 34 32 28 42 54 54 52 45 56 90 100 100 100 100 100 94 88 82 67 54 51 46 40 37
44 73 71 30 36 34 28 23 23 31 51 36 22 21 20 20 17 19 36 90 100 100 93 71 49 41 36 35 39 42 32 36 36 42 66 90 100 98 100 100 93 84 72 70 58 47 36 32 28
60 83 62 46 41 42 40 37 26 37 36 26 21 21 25 17 18 24 39 99 100 92 98 72 63 55 48 59 48 41 34 29 28 30 38 45 77 87 85 76 75 73 66 49 43 39 34 31 31
97 96 83 70 79 76 64 46 36 38 32 30 27 23 27 21 29 46 68 95 100 100 97 72 72 67 52 47 45 44 36 34 30 30 38 43 44 56 68 75 61 56 54 47 42 40 38 35 32
100 94 100 100 100 90 78 56 52 52 50 41 35 30 42 49 62 88 100 64 99 100 71 90 85 74 70 63 64 45 40 39 39 38 39 42 43 47 45 48 47 48 45 43 43 42 38 36 34
100 100 100 100 99 90 67 63 64 53 63 55 71 76 95 88 97 100 80 86 95 88 99 96 83 77 76 75 57 54 45 44 45 45 42 44 42 41 44 42 46 46 44 43 43 42 41 42 40
100 100 100 100 81 72 45 32 37 44 46 52 77 68 100 100 100 100 83 93 90 100 100 94 89 86 86 80 71 64 57 55 60 53 51 64 70 66 66 71 68 63 59 58 53 47 46 40 36
98 99 94 81 65 57 51 50 64 53 41 39 36 63 87 100 96 98 98 100 100 100 100 92 99 100 100 88 88 89 91 88 90 88 92 87 82 80 78 63 55 49 46 45 54 62 56 47 51
65 89 87 94 96 70 67 58 45 41 37 39 29 31 45 68 98 100 98 100 100 100 100 100 100 100 93 97 100 100 100 100 100 100 100 100 87 66 57 35 38 46 81 68 48 53 54 59 53
50 62 76 99 100 98 82 80 60 54 47 51 47 46 38 30 35 53 100 100 100 100 100 100 100 100 100 100 100 100 100 100 100 100 81 67 62 54 51 42 37 50 42 48 47 49 47 60 63
68 64 71 81 98 96 100 96 90 74 76 79 75 60 47 44 34 30 36 65 95 100 100 100 100 100 100 100 100 100 100 100 88 85 77 76 72 72 83 86 63 65 72 76 61 59 71 60 49
72 87 94 100 100 100 100 98 99 90 85 99 83 82 62 57 46 33 45 86 92 98 100 100 100 100 100 99 100 100 96 85 79 69 63 58 57 59 55 82 100 100 87 71 87 70 65 65 76
51 51 85 100 100 100 100 88 96 100 100 84 94 76 62 60 73 52 33 93 99 98 100 100 100 100 100 100 100 100 100 92 82 71 74 63 61 64 84 100 100 95 88 100 82 92 77 85 87
57 47 48 80 98 100 100 100 100 100 81 86 82 74 70 68 67 60 52 82 100 100 100 100 100 100 100 100 100 100 90 88 97 95 94 74 100 100 100 100 99 69 60 72 68 73 86 89 94
90 70 49 34 41 58 88 100 91 100 96 99 89 72 67 57 71 90 80 79 100 100 100 100 100 100 100 100 100 100 100 100 100 75 73 100 94 74 62 74 68 67 80 96 81 74 94 100 100
70 77 59 55 65 41 56 49 49 91 95 89 100 94 72 64 76 96 96 100 100 100 100 100 100 100 100 100 100 100 100 100 100 100 100 100 100 81 66 66 73 89 88 100 94 100 100 100 100
72 74 77 76 68 57 49 47 56 48 55 59 62 59 62 70 70 100 100 100 100 100 95 87 94 83 80 100 96 82 84 98 100 91 80 80 70 67 69 88 99 86 100 100 100 100 100 100 99
68 62 68 72 67 60 57 64 64 55 49 51 52 56 45 71 84 90 97 100 100 100 100 100 100 100 92 83 94 100 100 100 100 85 82 73 86 88 89 100 96 100 99 100 100 98 100 83 97
61 77 81 75 72 68 60 64 68 76 85 88 80 90 86 62 69 100 94 98 99 97 100 100 100 100 100 100 100 100 100 100 100 78 71 82 91 93 100 100 100 100 100 100 100 93 83 95 99
73 58 58 65 66 80 81 84 91 98 100 92 70 80 97 94 82 84 85 92 93 100 100 100 98 85 100 100 100 99 88 60 70 67 92 95 100 100 100 100 100 100 100 99 100 100 100 96 92
76 98 100 100 90 99 100 100 100 100 99 88 99 92 100 100 100 92 100 97 78 82 76 96 97 91 71 82 62 71 89 100 100 100 100 100 100 100 100 100 100 100 99 90 86 87 89 78 79

GFSSGP_250_rhum_165.txt.gz
RH
27 26 25 34 47 68 34 50 69 89 100 89 49 48 32 36 28 30 19 21 37 67 61 100 84 47 35 19 23 29 29 27 27 59 100 100 90 69 52 50 44 56 52 43 39 26 19 21 26
40 35 26 31 30 39 52 78 79 99 62 61 36 32 50 49 46 39 19 19 36 67 77 99 89 63 44 22 21 27 25 26 26 29 47 77 78 65 50 56 64 59 53 46 35 27 21 28 33
50 49 30 46 51 82 99 88 26 78 27 28 28 24 55 55 59 36 20 21 40 53 82 99 99 72 58 33 22 27 21 24 28 30 36 74 70 69 78 81 70 67 52 44 39 31 23 30 29
59 50 47 98 100 99 100 44 26 48 37 39 40 46 60 76 72 26 21 25 30 42 69 100 95 85 80 38 20 21 19 26 42 45 69 87 77 90 100 99 90 68 58 43 34 30 29 27 30
64 48 98 100 100 98 61 55 31 98 78 52 92 88 76 94 71 30 22 32 28 40 58 99 100 100 89 34 23 21 20 24 53 75 93 97 100 100 96 98 74 62 45 40 34 29 36 37 35
75 60 100 100 80 52 28 26 34 46 21 30 22 38 42 62 51 42 32 36 30 37 53 90 100 100 74 50 27 25 21 31 50 98 100 100 100 97 84 79 70 56 53 50 40 34 41 47 37
85 92 57 37 18 20 31 33 28 26 24 15 14 20 36 53 39 32 30 52 33 29 49 82 88 100 58 47 40 30 23 26 58 99 78 54 75 89 82 84 77 82 81 62 55 62 60 52 42
93 54 41 36 24 42 61 53 19 26 26 25 26 19 32 24 44 21 22 29 33 29 52 76 84 70 66 69 45 33 28 24 30 52 59 60 56 63 76 100 100 100 100 98 91 81 67 61 55
89 51 72 46 44 58 56 31 29 38 44 46 30 24 26 18 13 17 20 33 32 33 58 100 100 100 100 100 39 26 24 26 28 31 38 40 47 45 89 93 97 100 100 99 95 91 89 65 59
76 76 64 67 79 39 92 64 74 71 73 48 25 19 27 18 12 16 20 26 26 33 54 100 100 100 87 77 55 33 33 18 24 32 36 34 37 34 36 42 64 81 100 100 100 87 71 64 67
66 100 84 92 57 54 100 99 96 96 79 45 26 17 34 24 18 13 11 15 20 37 50 64 94 96 94 97 71 60 46 34 30 32 33 32 25 31 24 24 29 35 42 61 51 48 62 58 51
82 83 94 54 75 100 100 100 100 87 74 35 26 19 35 31 24 26 21 19 38 43 61 77 100 100 100 78 32 38 54 51 41 31 35 29 27 27 26 31 24 26 31 43 39 48 51 49 50
94 73 70 95 100 97 94 100 100 100 66 37 32 28 25 32 34 32 22 34 94 66 89 94 93 90 67 83 76 80 76 61 58 47 41 34 38 36 32 32 34 39 42 44 44 47 51 48 46
100 100 76 100 100 97 98 100 100 89 69 47 34 38 34 34 29 24 21 35 100 100 100 92 67 82 100 100 100 100 96 90 76 68 59 58 51 44 45 44 43 43 43 45 45 48 47 50 51
100 99 100 100 73 43 35 42 64 77 72 68 59 52 38 32 32 25 35 75 77 100 95 100 100 100 100 100 100 74 91 91 94 78 62 65 65 64 65 60 54 52 64 60 74 74 58 46 44
97 100 83 79 56 41 33 36 45 59 73 79 82 60 44 31 24 25 36 46 41 56 82 78 56 59 80 100 100 100 100 100 99 94 91 90 94 97 100 100 100 95 92 83 63 57 48 41 41
100 98 93 84 81 72 50 46 56 66 98 86 77 75 66 63 52 36 25 19 24 21 22 37 89 94 98 100 100 100 100 100 100 100 100 100 100 100 100 100 100 89 78 72 57 54 49 51 44
100 96 96 99 99 73 62 63 59 68 100 100 100 100 97 92 84 81 57 35 26 21 23 33 39 96 100 100 100 100 100 100 100 100 100 100 100 100 98 88 84 78 70 71 61 64 57 62 90
100 93 100 100 96 87 66 54 46 54 100 100 100 100 100 100 83 84 64 58 62 51 49 36 31 59 99 100 99 98 100 100 100 100 100 100 96 93 80 79 88 79 80 72 68 68 95 99 100
100 100 100 85 80 56 62 59 46 76 99 100 100 100 94 89 92 62 71 72 71 69 66 53 33 36 91 100 100 100 100 100 100 100 100 100 100 100 100 100 100 100 100 63 67 71 100 97 100
100 89 78 69 66 67 76 83 73 67 57 70 73 71 79 89 83 75 86 81 86 83 79 82 75 62 52 85 100 100 100 100 100 100 100 100 100 100 100 100 100 96 67 52 72 100 100 70 69
69 56 47 54 56 67 81 79 99 99 71 62 58 56 72 100 93 97 98 91 100 82 80 88 91 67 51 50 76 72 48 55 56 90 100 100 100 100 100 96 82 76 55 54 78 92 79 59 60
68 68 54 45 65 83 72 69 97 98 63 65 52 50 59 74 70 62 99 100 100 77 82 89 100 90 90 85 100 100 88 99 100 100 100 100 82 77 78 64 74 87 100 92 88 68 78 69 79
44 48 60 66 83 85 94 81 72 67 71 75 77 59 51 52 48 45 47 57 99 100 100 100 100 100 100 100 100 100 100 100 100 100 100 99 86 49 45 76 97 100 100 100 97 84 73 74 75
73 76 78 65 54 64 76 64 56 60 57 55 74 63 57 63 55 47 39 56 82 90 91 100 85 84 100 100 100 100 100 100 100 100 100 100 100 100 100 100 100 100 100 100 95 97 98 74 75
69 74 83 84 68 47 41 49 61 48 48 61 51 54 71 65 62 45 50 79 80 64 57 65 71 58 61 97 100 100 100 100 100 100 100 70 100 100 100 100 94 99 89 79 73 88 93 71 54
53 44 55 52 40 40 41 46 61 62 46 46 55 63 65 86 64 76 95 95 92 79 72 93 77 74 81 100 100 100 85 95 92 99 98 100 100 100 98 98 78 80 63 87 100 81 74 52 99
54 44 50 50 45 52 53 60 64 68 68 70 81 84 68 90 94 100 100 100 100 100 96 89 80 99 96 89 100 97 100 100 95 100 100 80 84 82 80 87 100 97 100 100 99 76 83 100 97
38 51 56 52 49 71 76 88 74 71 75 78 97 99 93 100 100 100 100 100 100 100 100 100 99 100 100 100 100 95 99 100 98 75 88 100 100 100 100 100 100 100 100 100 100 100 100 100 89
100 98 88 76 89 100 71 84 94 100 100 100 100 86 97 100 100 100 100 100 100 100 100 100 100 100 100 100 100 100 100 100 100 100 100 100 100 100 100 100 100 100 100 99 100 100 100 95 93

GFSSGP_250_rhum_168.txt.gz
RH
14 34 75 68 47 24 36 54 80 95 73 51 45 44 74 77 85 80 65 78 51 22 32 40 53 89 96 97 95 76 38 23 21 21 21 22 25 48 83 77 67 57 60 71 56 55 45 36 29
14 32 72 61 56 46 44 45 76 83 61 34 39 49 26 27 85 50 70 89 41 26 24 28 39 65 93 100 82 75 47 24 21 20 25 27 28 33 60 67 70 86 89 71 66 53 44 32 30
24 25 76 52 62 77 75 66 23 25 28 28 26 18 16 22 73 40 58 51 57 33 29 24 30 48 79 98 91 83 53 24 24 21 34 38 52 55 67 90 99 100 96 91 71 48 40 32 33
50 36 78 55 40 79 89 31 27 36 41 24 16 18 24 23 21 43 74 70 52 44 45 64 33 38 67 96 100 64 55 29 27 21 32 53 71 85 100 100 100 100 98 74 60 52 49 42 39
46 30 93 81 61 79 56 37 41 49 38 15 24 22 34 25 29 32 38 49 54 48 47 36 37 37 62 88 70 64 61 38 30 23 28 57 100 82 74 95 83 75 78 78 72 65 61 52 47
50 36 95 82 79 82 53 52 63 43 25 18 39 41 38 17 15 18 32 41 54 51 39 35 43 41 60 72 61 79 68 51 32 24 23 37 48 53 53 61 83 83 97 94 93 93 96 87 74
38 25 94 100 100 94 73 56 72 47 33 43 71 51 34 22 18 16 19 22 29 33 32 30 40 55 95 99 88 97 100 73 29 22 19 28 36 37 46 45 52 61 98 100 95 100 93 83 93
37 27 81 100 100 83 76 93 59 32 73 56 84 62 44 25 19 16 22 16 20 25 30 28 47 92 96 100 91 99 96 69 39 30 20 16 28 32 30 31 39 45 60 92 100 100 100 100 100
40 61 100 98 81 55 100 83 47 74 97 51 87 58 44 25 18 18 15 15 14 22 31 43 60 61 82 61 78 98 88 84 63 49 36 21 22 28 38 35 39 31 36 36 37 44 70 100 93
54 100 95 96 58 77 95 57 95 53 70 71 66 68 40 35 27 24 18 18 16 13 19 48 68 76 67 75 85 100 100 82 42 45 57 48 36 37 37 29 26 23 24 22 33 42 36 47 55
62 78 80 100 85 90 81 81 100 36 95 76 74 59 28 52 42 36 23 20 19 17 18 19 50 65 68 62 74 89 100 95 78 76 73 72 61 52 44 34 28 29 27 26 29 31 39 37 37
80 100 94 85 89 100 85 74 81 95 84 46 29 26 31 61 55 44 29 29 43 35 26 20 22 34 53 61 55 86 100 100 100 100 100 100 99 86 61 54 50 45 44 39 39 37 35 36 36
97 70 90 89 100 99 82 73 100 100 52 40 30 27 32 75 82 58 39 38 100 67 52 31 21 17 18 46 78 99 98 100 100 100 100 97 99 98 86 67 61 62 55 52 50 47 46 47 45
47 100 100 100 100 92 100 100 75 79 52 54 46 35 45 88 83 54 59 54 50 32 28 24 26 20 20 30 69 100 100 100 100 100 100 100 100 100 99 93 76 73 78 75 67 64 62 64 83
32 35 89 100 84 100 100 84 86 64 72 70 52 56 57 79 59 54 77 72 71 55 48 37 20 18 18 24 42 69 77 93 100 100 100 100 100 100 100 100 92 89 92 87 88 100 100 100 91
34 32 32 100 100 100 100 96 72 91 100 93 77 57 45 49 77 82 98 92 94 90 67 45 34 28 22 30 18 32 51 70 100 100 100 100 100 100 100 100 100 100 100 100 100 100 94 87 75
85 75 67 70 99 94 84 90 100 100 97 89 75 66 53 54 98 99 75 65 75 88 74 69 62 49 40 38 27 22 58 100 100 100 100 100 100 100 100 100 100 100 100 100 100 91 93 83 73
100 100 99 93 100 100 98 99 100 100 93 74 76 84 63 77 100 85 67 60 73 84 99 90 80 63 88 66 39 26 24 63 69 96 100 99 87 100 100 100 100 100 100 100 94 100 100 96 92
78 99 100 100 100 89 100 100 100 99 79 70 77 66 76 70 82 78 66 67 62 88 100 100 98 72 72 62 74 47 36 81 100 100 100 100 100 100 100 100 100 100 100 100 100 100 91 100 93
100 100 100 89 100 100 100 100 100 77 70 89 81 77 70 60 59 65 63 67 70 100 98 80 71 63 59 64 53 62 55 52 91 100 100 93 95 74 68 71 89 100 100 100 100 98 93 63 63
87 79 87 77 70 66 67 76 68 70 76 64 64 73 90 83 61 58 64 77 58 85 96 72 93 99 69 68 53 52 72 56 47 53 53 47 64 85 93 75 67 77 88 100 100 100 89 71 50
72 67 62 73 69 68 73 58 64 90 75 68 62 61 73 79 64 52 54 54 69 62 73 68 63 63 68 67 88 66 69 67 65 78 100 100 99 89 68 92 100 100 100 100 100 97 86 71 48
59 63 71 67 60 54 52 64 77 95 79 75 87 81 59 49 64 64 52 51 55 61 70 74 66 63 70 83 62 72 83 52 83 65 79 100 100 100 100 100 100 100 100 100 100 100 51 91 100
62 61 67 66 64 52 48 55 49 62 60 59 64 73 63 46 43 57 68 58 50 62 73 70 68 64 78 92 76 90 88 92 100 98 83 100 99 75 70 74 77 89 90 94 100 93 100 100 100
74 44 50 70 75 66 58 45 36 34 41 42 41 44 47 52 57 67 66 49 45 50 72 69 82 72 76 80 99 99 92 82 99 100 99 85 100 99 100 100 100 100 100 100 100 100 100 100 75
61 60 52 45 51 63 55 46 42 38 35 36 36 45 44 59 88 91 65 70 63 68 80 84 87 91 63 85 89 95 98 78 100 99 100 100 100 100 100 100 100 100 100 100 63 60 73 82 82
43 33 45 41 42 45 45 39 41 48 47 50 48 49 55 54 73 75 62 66 97 84 96 100 99 100 100 100 98 97 93 89 98 100 55 93 100 100 100 88 70 92 90 99 74 91 88 87 96
36 36 33 42 52 54 45 48 54 54 57 76 90 80 65 66 84 67 84 97 98 100 100 100 100 100 100 100 100 100 100 94 94 95 84 77 96 95 84 84 83 76 100 100 100 100 100 100 100
37 40 49 56 50 65 62 59 46 58 75 90 72 54 80 92 95 96 100 100 100 100 100 100 100 100 100 100 100 100 100 100 100 100 100 100 96 99 100 100 100 100 100 100 100 100 100 100 100
38 41 51 44 59 64 69 74 63 54 65 76 99 100 99 95 97 100 100 100 100 100 100 100 100 100 100 100 100 100 100 100 100 100 100 100 100 100 100 100 100 100 91 100 100 100 100 100 100

GFSSGP_250_rhum_171.txt.gz
RH
73 69 59 37 25 20 24 40 51 57 38 30 24 20 24 20 21 20 19 15 18 60 78 74 53 52 42 30 49 94 77 64 53 27 23 20 18 19 20 24 39 56 60 68 76 80 62 61 49
83 100 92 56 25 25 36 23 51 48 31 45 34 18 32 30 30 22 22 17 24 32 34 50 48 48 47 43 36 84 82 70 48 32 26 20 23 26 37 36 44 63 90 95 94 85 82 58 42
71 76 100 60 29 23 30 33 56 67 46 49 33 25 43 48 54 25 25 19 18 20 29 45 67 62 44 34 34 70 96 58 44 38 28 23 28 52 73 84 96 96 100 100 99 80 66 54 43
78 83 100 88 38 20 23 60 74 72 53 57 36 36 55 64 70 34 22 19 22 21 24 27 31 34 31 27 33 54 70 51 43 55 36 24 23 37 46 51 48 49 59 43 60 65 62 68 73
71 100 100 74 31 22 38 100 87 75 61 55 24 41 72 84 56 44 22 18 16 21 26 26 32 27 24 26 45 74 66 54 46 75 66 27 18 20 26 29 29 34 51 50 52 71 70 79 86
41 96 100 62 31 32 86 100 100 63 63 48 25 48 79 100 68 45 24 21 16 16 20 22 30 23 23 53 88 85 69 57 99 98 78 36 20 17 22 26 28 27 30 30 36 69 50 55 72
40 100 100 77 47 56 85 88 80 62 76 45 25 44 61 62 61 37 28 23 21 17 15 19 32 47 86 56 70 64 58 60 64 56 66 49 34 21 21 25 32 32 29 32 33 53 66 65 58
52 47 93 85 58 78 67 73 51 82 86 75 35 24 59 74 60 31 21 22 29 25 22 16 27 74 80 66 57 55 47 62 86 97 76 75 65 50 39 37 36 40 28 34 37 40 38 45 49
63 51 78 95 56 52 51 94 77 72 93 73 48 36 72 56 50 26 25 28 36 31 29 41 29 28 25 38 38 43 30 34 88 99 89 80 78 80 83 72 61 59 48 37 41 37 31 38 46
48 43 63 88 53 73 88 78 50 45 100 79 48 79 55 43 49 29 35 40 42 39 34 50 29 24 21 20 22 29 29 26 42 67 93 94 92 100 99 97 98 87 69 59 45 42 42 46 48
59 49 64 68 56 70 100 52 58 93 100 74 60 84 50 52 60 37 41 51 53 49 41 38 28 33 28 26 19 20 16 23 41 58 81 100 100 100 100 100 100 100 100 90 72 62 55 50 47
100 100 100 100 100 98 40 24 84 100 99 79 80 85 48 55 55 44 50 79 97 64 59 46 41 42 40 25 21 16 16 27 25 54 94 100 100 100 100 100 100 100 100 84 69 63 61 66 64
86 87 96 87 83 48 32 96 84 100 94 96 80 74 64 65 54 49 76 70 86 58 65 72 71 54 38 34 22 24 21 19 26 51 64 81 96 100 100 100 100 100 100 100 100 87 83 82 75
81 70 57 43 36 24 22 21 30 100 94 100 75 79 68 85 71 58 58 49 58 90 91 79 75 67 56 39 28 28 23 25 29 37 54 71 100 100 100 100 100 100 100 94 97 94 80 88 87
73 66 49 56 50 51 35 18 82 74 68 77 98 78 100 86 81 65 54 52 78 100 92 70 66 59 56 45 37 34 34 29 21 21 31 84 100 100 100 100 100 100 100 100 100 92 100 100 100
67 52 45 46 37 32 28 28 48 98 100 100 100 100 100 88 86 69 60 58 97 100 100 94 86 80 70 57 46 64 52 41 32 25 30 99 100 100 100 100 100 100 100 100 100 100 94 100 100
97 69 62 58 53 56 76 99 100 100 96 100 100 100 98 95 81 71 62 71 69 70 98 94 99 71 67 95 73 77 88 64 43 36 29 50 87 94 100 100 100 100 100 84 87 100 100 100 100
92 95 98 98 100 100 100 96 86 94 100 100 100 100 98 100 100 82 79 86 86 100 100 100 67 72 85 96 65 76 99 87 66 55 48 34 73 100 100 100 100 100 100 100 100 100 100 100 100
72 78 99 100 100 69 85 99 100 100 100 100 100 90 80 80 85 90 87 74 69 69 66 61 78 77 85 100 100 100 100 100 97 64 37 61 54 86 100 100 100 100 100 100 100 100 99 97 100
90 66 64 61 62 61 98 97 81 74 94 97 84 81 84 81 72 79 97 84 77 72 76 63 58 59 60 88 86 100 100 97 100 72 34 42 63 57 88 90 83 90 98 93 96 100 100 98 100
97 81 79 66 64 57 88 87 77 76 74 72 73 72 71 66 64 74 71 80 79 71 70 64 82 89 71 76 96 100 100 82 71 34 36 50 50 48 34 36 42 63 94 100 100 100 94 100 100
96 100 88 78 83 86 80 68 78 83 74 72 71 75 60 50 46 42 46 47 59 63 79 74 62 64 68 63 79 94 96 89 59 44 60 62 56 47 56 72 59 69 42 40 56 88 92 99 90
100 100 93 90 84 72 79 88 84 78 69 65 76 76 66 62 46 45 39 38 40 45 63 75 87 72 76 71 68 76 80 82 41 73 53 46 52 78 54 61 59 50 68 88 81 65 65 67 67
100 100 90 86 86 75 82 80 69 77 78 78 63 51 56 57 54 53 45 43 46 49 63 67 65 69 78 68 69 74 55 53 66 80 93 74 80 87 100 96 98 100 97 92 100 100 100 96 83
98 80 74 72 69 66 66 60 51 50 50 60 56 47 41 42 46 44 48 56 58 48 57 57 66 75 73 71 60 71 91 100 100 94 83 72 94 92 65 91 93 84 94 98 56 58 93 100 100
90 76 69 68 61 56 44 47 45 38 36 37 36 40 39 36 43 70 62 51 52 64 61 57 62 64 49 66 87 85 90 100 100 100 99 100 73 95 94 63 75 89 75 61 95 80 51 88 76
56 50 50 48 38 35 36 30 28 29 31 32 31 31 34 38 55 67 58 58 58 51 55 69 82 82 84 90 100 100 100 100 100 100 100 100 100 96 94 100 100 100 91 100 100 100 81 55 72
56 62 55 44 41 36 28 31 34 37 37 36 40 43 46 58 58 49 43 66 52 57 89 100 99 100 83 100 95 100 100 100 100 93 100 100 100 100 100 100 96 100 100 98 100 100 100 82 96
98 86 99 96 58 73 72 54 46 40 39 45 52 42 48 59 48 52 61 68 72 72 92 100 100 100 100 100 100 100 100 100 100 100 100 100 100 100 100 100 100 100 100 100 100 100 100 100 100
95 100 100 100 99 99 83 85 98 99 100 96 70 99 100 86 80 74 73 77 97 100 100 100 100 100 100 100 100 100 100 100 100 100 100 100 100 100 100 100 100 100 100 100 100 100 100 100 100